This is the latest recevied weather packets stored in our database for station/object HB9HFD-13. If no packets are shown the sender has not sent any weather packets the latest 10 day(s).
| Time | Temp. | Humidity | Pressure | Rain* | Wind** | Luminosity | Snow |
|---|---|---|---|---|---|---|---|
| 1787630207 | 17.22° C | 95% | 1009.9 hPa | 0 mm | - | - | - |
| 1787629907 | 17.22° C | 95% | 1009.9 hPa | 0 mm | - | - | - |
| 1787629607 | 17.22° C | 95% | 1010 hPa | 0 mm | - | - | - |
| 1787629306 | 17.22° C | 95% | 1009.9 hPa | 0 mm | - | - | - |
| 1787629006 | 17.22° C | 95% | 1009.9 hPa | 0 mm | - | - | - |
| 1787628706 | 17.22° C | 95% | 1009.9 hPa | 0 mm | - | - | - |
| 1787628406 | 17.22° C | 94% | 1009.8 hPa | 0.25 mm | - | - | - |
| 1787628105 | 17.22° C | 94% | 1010 hPa | 0.25 mm | - | - | - |
| 1787627805 | 17.22° C | 94% | 1010 hPa | 0.25 mm | - | - | - |
| 1787627505 | 17.22° C | 94% | 1009.8 hPa | 0.25 mm | - | - | - |
| 1787627205 | 17.22° C | 94% | 1009.7 hPa | 0.51 mm | - | - | - |
| 1787626904 | 17.22° C | 94% | 1009.8 hPa | 0.51 mm | - | - | - |
| 1787626604 | 17.22° C | 94% | 1009.9 hPa | 0.76 mm | - | - | - |
| 1787626304 | 17.22° C | 94% | 1009.8 hPa | 1.27 mm | - | - | - |
| 1787626003 | 17.22° C | 94% | 1009.8 hPa | 1.52 mm | - | - | - |
| 1787625703 | 17.22° C | 94% | 1009.7 hPa | 1.78 mm | - | - | - |
| 1787625403 | 17.22° C | 94% | 1009.7 hPa | 2.03 mm | - | - | - |
| 1787625103 | 17.22° C | 94% | 1009.8 hPa | 2.29 mm | - | - | - |
| 1787624802 | 17.22° C | 94% | 1009.9 hPa | 2.29 mm | - | - | - |
| 1787624502 | 17.22° C | 94% | 1009.9 hPa | 2.79 mm | - | - | - |
| 1787624202 | 17.22° C | 94% | 1009.9 hPa | 3.05 mm | - | - | - |
| 1787623902 | 17.22° C | 94% | 1009.9 hPa | 3.3 mm | - | - | - |
| 1787623601 | 17.78° C | 94% | 1009.9 hPa | 3.3 mm | - | - | - |
| 1787623301 | 17.78° C | 94% | 1009.9 hPa | 3.56 mm | - | - | - |
| 1787623001 | 17.78° C | 94% | 1009.9 hPa | 3.56 mm | - | - | - |
* Rain latest hour (hover to see other rain measurements)
** Current wind speed in m/s (hover to see current wind gust speed)